• în România
  • Lista ţărilor
  • Pe 7 zile
  • Temperatura apei
  • Hartă satelitară
  • Meteo pe hartă
  • Widget-uri
  • user-avatar
    Intrare

    Meteo pe oră la Klimontow

    Astăzi, 24 Octombrie, Miercuri

    Timp Temperatura Precipitaţii Vânt Presiune Umiditate
    00:00 +7°C° 1 mm 9 m/s 731 mmHg 80%
    01:00 +7°C° 1 mm 9 m/s 731 mmHg 81%
    02:00 +7°C° 0.6 mm 9 m/s 730 mmHg 80%
    03:00 +6°C° 0.6 mm 8 m/s 730 mmHg 78%
    04:00 +6°C° 0.6 mm 8 m/s 729 mmHg 77%
    05:00 +6°C° 0.2 mm 9 m/s 730 mmHg 75%
    06:00 +5°C° 0.2 mm 9 m/s 730 mmHg 73%
    07:00 +5°C° 0.2 mm 9 m/s 730 mmHg 70%
    08:00 +5°C° 0.2 mm 10 m/s 731 mmHg 64%
    09:00 +5°C° 0.2 mm 10 m/s 732 mmHg 59%
    10:00 +4°C° 0.2 mm 11 m/s 732 mmHg 53%
    11:00 +6°C° 0 mm 11 m/s 733 mmHg 49%
    12:00 +6°C° 0 mm 11 m/s 733 mmHg 45%
    13:00 +6°C° 0 mm 11 m/s 734 mmHg 42%
    14:00 +6°C° 0 mm 10 m/s 734 mmHg 43%
    15:00 +5°C° 0 mm 9 m/s 735 mmHg 44%
    16:00 +5°C° 0 mm 8 m/s 735 mmHg 46%
    17:00 +4°C° 0 mm 7 m/s 736 mmHg 49%
    18:00 +4°C° 0 mm 7 m/s 737 mmHg 52%
    19:00 +3°C° 0 mm 6 m/s 737 mmHg 55%
    20:00 +3°C° 0 mm 6 m/s 738 mmHg 56%
    21:00 +3°C° 0 mm 6 m/s 739 mmHg 58%
    22:00 +2°C° 0 mm 6 m/s 739 mmHg 60%
    23:00 +2°C° 0 mm 6 m/s 739 mmHg 61%

    Mâine, 25 Octombrie, Joi

    Timp Temperatura Precipitaţii Vânt Presiune Umiditate
    00:00 +2°C° 0 mm 6 m/s 740 mmHg 63%
    01:00 +2°C° 0 mm 6 m/s 740 mmHg 65%
    02:00 +1°C° 0 mm 5 m/s 740 mmHg 69%
    03:00 +1°C° 0 mm 5 m/s 740 mmHg 74%
    04:00 +1°C° 0 mm 5 m/s 740 mmHg 78%
    05:00 +1°C° 0 mm 5 m/s 740 mmHg 77%
    06:00 +2°C° 0 mm 5 m/s 739 mmHg 77%
    07:00 +2°C° 0 mm 5 m/s 739 mmHg 76%
    08:00 +3°C° 0.5 mm 5 m/s 739 mmHg 77%
    09:00 +3°C° 0.5 mm 6 m/s 738 mmHg 79%
    10:00 +4°C° 0.5 mm 6 m/s 737 mmHg 80%
    11:00 +6°C° 0.3 mm 7 m/s 737 mmHg 79%
    12:00 +9°C° 0.3 mm 8 m/s 736 mmHg 77%
    13:00 +10°C° 0.3 mm 9 m/s 735 mmHg 76%
    14:00 +10°C° 0.3 mm 8 m/s 735 mmHg 78%
    15:00 +10°C° 0.3 mm 8 m/s 735 mmHg 81%
    16:00 +10°C° 0.3 mm 8 m/s 735 mmHg 83%
    17:00 +9°C° 0.2 mm 8 m/s 735 mmHg 82%
    18:00 +9°C° 0.2 mm 8 m/s 736 mmHg 82%
    19:00 +9°C° 0.2 mm 8 m/s 736 mmHg 82%
    20:00 +9°C° 0.2 mm 7 m/s 736 mmHg 81%
    21:00 +8°C° 0.2 mm 6 m/s 737 mmHg 80%
    22:00 +8°C° 0.2 mm 6 m/s 737 mmHg 79%
    23:00 +7°C° 0 mm 5 m/s 737 mmHg 80%

    Poimâine, 26 Octombrie, Vineri

    Timp Temperatura Precipitaţii Vânt Presiune Umiditate
    00:00 +6°C° 0 mm 5 m/s 737 mmHg 80%
    01:00 +6°C° 0 mm 5 m/s 738 mmHg 81%
    02:00 +6°C° 0 mm 5 m/s 738 mmHg 82%
    03:00 +5°C° 0 mm 4 m/s 738 mmHg 82%
    04:00 +5°C° 0 mm 4 m/s 738 mmHg 83%
    05:00 +5°C° 0 mm 4 m/s 738 mmHg 84%
    06:00 +5°C° 0 mm 4 m/s 738 mmHg 85%
    07:00 +6°C° 0 mm 4 m/s 738 mmHg 85%
    08:00 +7°C° 0 mm 4 m/s 738 mmHg 80%
    09:00 +8°C° 0 mm 4 m/s 738 mmHg 75%
    10:00 +9°C° 0 mm 5 m/s 738 mmHg 70%
    11:00 +10°C° 0 mm 5 m/s 738 mmHg 69%
    12:00 +12°C° 0 mm 5 m/s 737 mmHg 68%
    13:00 +12°C° 0 mm 5 m/s 737 mmHg 66%
    14:00 +12°C° 0 mm 4 m/s 736 mmHg 68%
    15:00 +12°C° 0 mm 4 m/s 736 mmHg 70%
    16:00 +11°C° 0 mm 3 m/s 735 mmHg 72%
    17:00 +11°C° 0 mm 4 m/s 735 mmHg 75%
    18:00 +10°C° 0 mm 4 m/s 735 mmHg 77%
    19:00 +8°C° 0 mm 4 m/s 734 mmHg 80%
    20:00 +8°C° 0 mm 4 m/s 734 mmHg 81%
    21:00 +8°C° 0 mm 4 m/s 734 mmHg 81%
    22:00 +8°C° 0 mm 5 m/s 734 mmHg 82%
    23:00 +8°C° 0 mm 5 m/s 734 mmHg 82%

    27 Octombrie, Sâmbătă

    Timp Temperatura Precipitaţii Vânt Presiune Umiditate
    00:00 +8°C° 0 mm 5 m/s 734 mmHg 81%
    01:00 +8°C° 0 mm 5 m/s 734 mmHg 81%
    02:00 +7°C° 0 mm 5 m/s 735 mmHg 80%
    03:00 +7°C° 0 mm 5 m/s 735 mmHg 79%
    04:00 +7°C° 0 mm 5 m/s 735 mmHg 77%
    05:00 +7°C° 0 mm 5 m/s 735 mmHg 75%
    06:00 +6°C° 0 mm 5 m/s 736 mmHg 73%
    07:00 +6°C° 0 mm 5 m/s 736 mmHg 70%
    08:00 +7°C° 0 mm 5 m/s 736 mmHg 66%
    09:00 +7°C° 0 mm 5 m/s 737 mmHg 61%
    10:00 +7°C° 0 mm 5 m/s 737 mmHg 57%
    11:00 +8°C° 0 mm 5 m/s 737 mmHg 55%
    12:00 +8°C° 0 mm 4 m/s 738 mmHg 53%
    13:00 +8°C° 0 mm 4 m/s 738 mmHg 51%
    14:00 +9°C° 0 mm 3 m/s 738 mmHg 53%
    15:00 +8°C° 0 mm 3 m/s 738 mmHg 55%
    16:00 +8°C° 0 mm 2 m/s 738 mmHg 56%
    17:00 +8°C° 0 mm 2 m/s 739 mmHg 58%
    18:00 +7°C° 0 mm 2 m/s 739 mmHg 60%
    19:00 +8°C° 0 mm 1 m/s 739 mmHg 62%
    20:00 +8°C° 0 mm 1 m/s 740 mmHg 64%
    21:00 +7°C° 0 mm 1 m/s 740 mmHg 66%
    22:00 +7°C° 0 mm 1 m/s 740 mmHg 67%
    23:00 +7°C° 0.2 mm 1 m/s 740 mmHg 70%

    28 Octombrie, Duminică

    Timp Temperatura Precipitaţii Vânt Presiune Umiditate
    00:00 +7°C° 0.2 mm 1 m/s 740 mmHg 73%
    01:00 +7°C° 0.2 mm 1 m/s 741 mmHg 76%
    02:00 +5°C° 0.2 mm 2 m/s 741 mmHg 77%
    03:00 +5°C° 0.2 mm 2 m/s 741 mmHg 79%
    04:00 +4°C° 0.2 mm 3 m/s 741 mmHg 81%
    05:00 +4°C° 0.2 mm 3 m/s 741 mmHg 81%
    06:00 +4°C° 0.2 mm 3 m/s 741 mmHg 82%
    07:00 +4°C° 0.2 mm 3 m/s 741 mmHg 82%
    08:00 +4°C° 0.3 mm 4 m/s 741 mmHg 81%
    09:00 +5°C° 0.3 mm 5 m/s 741 mmHg 80%
    10:00 +5°C° 0.3 mm 5 m/s 741 mmHg 78%
    11:00 +5°C° 0.4 mm 5 m/s 741 mmHg 80%
    12:00 +4°C° 0.4 mm 6 m/s 740 mmHg 81%
    13:00 +4°C° 0.4 mm 6 m/s 740 mmHg 83%
    14:00 +4°C° 1.1 mm 6 m/s 740 mmHg 85%
    15:00 +3°C° 1.1 mm 6 m/s 739 mmHg 87%
    16:00 +3°C° 1.1 mm 6 m/s 739 mmHg 89%
    17:00 +3°C° 1.5 mm 5 m/s 739 mmHg 90%
    18:00 +3°C° 1.5 mm 5 m/s 739 mmHg 91%
    19:00 +5°C° 1.5 mm 5 m/s 739 mmHg 92%
    20:00 +5°C° 0.9 mm 5 m/s 739 mmHg 92%
    21:00 +5°C° 0.9 mm 5 m/s 738 mmHg 93%
    22:00 +5°C° 0.9 mm 5 m/s 738 mmHg 93%
    23:00 +5°C° 0.2 mm 5 m/s 737 mmHg 94%

    29 Octombrie, Luni

    Timp Temperatura Precipitaţii Vânt Presiune Umiditate
    00:00 +6°C° 0.2 mm 5 m/s 737 mmHg 94%
    01:00 +6°C° 0.2 mm 5 m/s 736 mmHg 95%
    02:00 +6°C° 0.2 mm 4 m/s 736 mmHg 94%
    03:00 +7°C° 0.2 mm 4 m/s 735 mmHg 94%
    04:00 +7°C° 0.2 mm 4 m/s 735 mmHg 94%
    05:00 +7°C° 0.1 mm 4 m/s 734 mmHg 92%
    06:00 +8°C° 0.1 mm 4 m/s 734 mmHg 90%
    07:00 +10°C° 0.1 mm 4 m/s 734 mmHg 88%
    08:00 +11°C° 0.1 mm 4 m/s 733 mmHg 85%
    09:00 +12°C° 0.1 mm 5 m/s 733 mmHg 82%
    10:00 +13°C° 0.1 mm 5 m/s 733 mmHg 79%
    11:00 +13°C° 0.1 mm 4 m/s 733 mmHg 80%
    12:00 +12°C° 0.1 mm 4 m/s 733 mmHg 81%
    13:00 +12°C° 0.1 mm 4 m/s 732 mmHg 83%
    14:00 +12°C° 0.4 mm 4 m/s 732 mmHg 85%
    15:00 +12°C° 0.4 mm 3 m/s 732 mmHg 87%
    16:00 +12°C° 0.4 mm 3 m/s 732 mmHg 89%
    17:00 +12°C° 0.1 mm 3 m/s 732 mmHg 89%
    18:00 +12°C° 0.1 mm 3 m/s 733 mmHg 90%
    19:00 +12°C° 0.1 mm 2 m/s 733 mmHg 91%
    20:00 +12°C° 0 mm 2 m/s 733 mmHg 91%
    21:00 +12°C° 0 mm 2 m/s 733 mmHg 90%
    22:00 +12°C° 0 mm 2 m/s 733 mmHg 90%
    23:00 +11°C° 0 mm 3 m/s 733 mmHg 90%

    30 Octombrie, Marţi

    Timp Temperatura Precipitaţii Vânt Presiune Umiditate
    00:00 +11°C° 0 mm 3 m/s 733 mmHg 91%
    01:00 +11°C° 0 mm 3 m/s 733 mmHg 91%
    02:00 +11°C° 0 mm 3 m/s 733 mmHg 91%
    03:00 +11°C° 0 mm 3 m/s 733 mmHg 91%
    04:00 +11°C° 0 mm 4 m/s 733 mmHg 91%
    05:00 +11°C° 0 mm 4 m/s 733 mmHg 90%
    06:00 +12°C° 0 mm 4 m/s 733 mmHg 88%
    07:00 +12°C° 0 mm 5 m/s 733 mmHg 87%
    08:00 +13°C° 0 mm 5 m/s 733 mmHg 83%
    09:00 +14°C° 0 mm 5 m/s 733 mmHg 78%
    10:00 +15°C° 0 mm 6 m/s 733 mmHg 74%
    11:00 +15°C° 0.1 mm 5 m/s 733 mmHg 75%
    12:00 +15°C° 0.1 mm 5 m/s 733 mmHg 76%
    13:00 +15°C° 0.1 mm 5 m/s 733 mmHg 77%
    14:00 +15°C° 0.9 mm 4 m/s 733 mmHg 82%
    15:00 +14°C° 0.9 mm 3 m/s 733 mmHg 87%
    16:00 +14°C° 0.9 mm 2 m/s 733 mmHg 92%
    17:00 +14°C° 0.3 mm 2 m/s 732 mmHg 93%
    18:00 +14°C° 0.3 mm 2 m/s 732 mmHg 94%
    19:00 +14°C° 0.3 mm 1 m/s 732 mmHg 95%
    20:00 +13°C° 1.8 mm 2 m/s 732 mmHg 95%
    21:00 +13°C° 1.8 mm 2 m/s 732 mmHg 95%
    22:00 +13°C° 1.8 mm 2 m/s 732 mmHg 96%
    23:00 +12°C° 1.6 mm 3 m/s 732 mmHg 95%
    Arată mai mult